Regional Weather Roundup
Issued by NWS Upton, NY

Current Version | Previous Version | Text Only | Print | Product List | Glossary On
Versions: 1 2 3 4 5 6 7 8 9 10 11 12 13 14 15 16 17 18 19 20 21 22 23 24 25 26 27
000
ASUS41 KOKX 231909
RWROKX

REGIONAL WEATHER ROUNDUP
NATIONAL WEATHER SERVICE NEW YORK NY
300 PM EDT FRI JUN 23 2017

NOTE: "FAIR" INDICATES FEW OR NO CLOUDS BELOW 12,000 FEET WITH NO
SIGNIFICANT WEATHER AND/OR OBSTRUCTIONS TO VISIBILITY.

NYZ071-072-176-178-NJZ106-104-232000-
NEW YORK CITY METRO AREA

CITY           SKY/WX    TMP DP  RH WIND       PRES   REMARKS
Central Park   CLOUDY    81  72  74 SW8G21    29.72F
Bronx Bot Gard   N/A     81  68  65 NW6       29.68F
LaGuardia APRT CLOUDY    81  72  74 SW15G22   29.68F
Kennedy INTL   CLOUDY    82  73  74 S15       29.71F
Breezy Point     N/A     77 N/A N/A SW8         N/A
Newark/Liberty CLOUDY    82  71  69 SW20G28   29.69F
Teterboro      LGT RAIN  81  71  71 SW15G21   29.67F
$$

NYZ177-179-078>081-232000-
LONG ISLAND NEW YORK

CITY           SKY/WX    TMP DP  RH WIND       PRES   REMARKS
Jones Beach      N/A     72 N/A N/A S12G18      N/A
Matinecock PT  NOT AVBL
Farmingdale    NOT AVBL
MacArthur/ISP  CLOUDY    75  70  84 SW15G25   29.71F
Shirley        CLOUDY    74  70  87 SW16G24   29.73F
Mt Sinai Harb    N/A    N/A N/A N/A SW9G16      N/A
Westhampton    CLOUDY    74  67  78 SW12G25   29.74F
East Hampton   FAIR      77  68  75 SW12G22   29.73F
Montauk          N/A     74  69  85 SW9       29.75F
$$

NYZ052-065-067-232000-
HUDSON VALLEY

CITY           SKY/WX    TMP DP  RH WIND       PRES   REMARKS
White Plains   PTSUNNY   75  72  88 S5        29.69F
Larchmont Harb   N/A     72 N/A N/A S14         N/A
Croton O-T Hud   N/A     75 N/A N/A SW6G12      N/A
Newburgh       CLOUDY    77  72  83 W10       29.69F
Montgomery     CLOUDY    79  71  76 SW13G24   29.66F
Poughkeepsie   CLOUDY    79  70  74 SW6       29.65F
Albany         CLOUDY    85  67  54 S17G26    29.59F
$$

NJZ001-105-106-008-010-013-015-019>022-104-232000-
NEW JERSEY

CITY           SKY/WX    TMP DP  RH WIND       PRES   REMARKS
Newark/Liberty CLOUDY    82  71  69 SW20G28   29.69F
Teterboro      LGT RAIN  81  71  71 SW15G21   29.67F
Caldwell       CLOUDY    80  71  74 SW8       29.69F
Somerville     CLOUDY    81  73  76 VRB6      29.68F
Linden         CLOUDY    81  69  67 W10G18    29.70F
Perth Amboy      N/A     79 N/A N/A SW17G25     N/A
Sussex         PTSUNNY   79  72  79 SW9G24    29.67F
Andover          N/A     79  72  79 SW10G17   29.70F
Trenton        CLOUDY    82  72  71 SW9       29.71F
Millville      CLOUDY    83  76  79 SW9G20    29.75F HX  91
Atlantic City  PTSUNNY   86  73  65 SW15      29.75F HX  93
Wrightstown    PTSUNNY   82  73  75 SW17      29.70F
Toms River     CLOUDY    83  74  74 SW16G23   29.74F
Belmar         CLOUDY    82  72  71 SW13G22   29.73F
$$

PAZ047>061-062-071-232000-
EASTERN PENNSYLVANIA

CITY           SKY/WX    TMP DP  RH WIND       PRES   REMARKS
Philadelphia   PTSUNNY   86  71  60 SW20G28   29.72F HX  91
Allentown      PTSUNNY   84  72  67 SW16G23   29.70F
Scranton       PTSUNNY   79  69  71 SW14G21   29.69F
$$

CTZ002-004>006-009-010-012-RIZ004-006-007-MAZ004-011-015-232000-
SOUTHERN NEW ENGLAND
 IN CT

CITY           SKY/WX    TMP DP  RH WIND       PRES   REMARKS
Bradley INTL   CLOUDY    89  67  47 S14G24    29.65F HX  92
Hartford       CLOUDY    85  71  63 S15       29.66F HX  90
Danbury        LGT RAIN  77  72  84 SW10      29.70F
Wtrbury/Oxford PTSUNNY   81  66  61 SW8G16    29.71F
Bridgeport     CLOUDY    80  69  69 S14       29.68F
Meriden        PTSUNNY   83  71  67 S10G22    29.67F
New Haven      PTSUNNY   81  72  74 S12G18    29.69F
Chester        MOCLDY    81  72  74 S9G18     29.71F
Groton           N/A    N/A N/A N/A MISG      29.71F
Wilimantic     PTSUNNY   87  69  54 S12       29.68F HX  91

 IN RI

CITY           SKY/WX    TMP DP  RH WIND       PRES   REMARKS
Providence     PTSUNNY   85  70  60 S18G26    29.71F
Block Island   CLOUDY    74  68  81 SW17G31   29.75F
Westerly       CLOUDY    77  69  76 S13       29.74F
 IN MA

CITY           SKY/WX    TMP DP  RH WIND       PRES   REMARKS
Boston         CLOUDY    85  68  56 S21G30    29.66F
Worcester      PTSUNNY   84  64  50 S14G28    29.70F
Westfield      NOT AVBL
Provincetown   MOSUNNY   78  70  76 S16G23    29.73F
Nantucket      CLOUDY    69  66  90 S16G26    29.78F
$$

ANZ330-335-338-340-345-350-353-355-232000-
COASTAL MARINE OBSERVATIONS


STATION/POSITION TIME  SKY/WX   TEMP    WIND        PRES    VSBY  WAVE
                                AIR SEA DIR/SP/G                  HT/PER
                 (UTC)          (F)     (DEG/KT/KT) (MB)    (MI)  (FT/S)
NY HARB ENTRANCE 1750            69 67  210/ 19/ 25 1006.7          3/ 4
20 S FIRE ISLAND 1850            71 69  210/ 19/ 23 1006.3          5/ 5
GREAT SOUTH BAY  1830            72 76  220/ 17/ 25   N/A
23 SSW MONTAUK P 1750            68 64              1008.3          3/ 9
15 E BARNEGAT LI 1830               65                N/A           4/ 5
HUDSON CANYON    1750            70 67  200/ 16/ 17 1009.2          3/ 5
KINGS POINT      1842            77 65  260/ 16/ 19 1005.3
EXECUTION ROCKS  1845            73     180/ 12/ 14   N/A
CENTRAL LI SOUND 1845            75     200/ 14/ 17   N/A           1
EASTERN LI SOUND NOT AVBL
ROBBINS REEF     1806                   220/ 17/ 21 1006.6
$$


>>>>>>>>>>>>>>>>>>>>>>>>>>>> KEY <<<<<<<<<<<<<<<<<<<<<<<<<<<
>                                                          <
>     SKY/WX - Sky Condition/Present Weather               <
>     TMP    - Temperature in Fahrenheit                   <
>     DP     - Dew Point in Fahrenheit                     <
>     RH     - Relative Humidity in Percent                <
>     WIND   - Direction (from) and Speed in MPH           <
>     PRES   - Mean Sea Level Pressure (inches of Hg)      <
>     WCI    - Wind Chill Index                            <
>     VSB    - VISIBILITY IN MILES                         <
>     HX     - HEAT INDEX                                  <
>     TC     - TEMPERATURE IN CELSIUS                      <
>     VRB    - VARIABLE WIND DIRECTION                     <
>                                                          <
>>>>>>>>>>>>>>>>>>>>>>>>>>>> KEY <<<<<<<<<<<<<<<<<<<<<<<<<<<




USA.gov is the U.S. government's official web portal to all federal, state and local government web resources and services.